SCP
0 0 0 0 0 0 0 0 0 0 0 0 0 0 0 0 0 0 0 0 0 0 0 0 0 0 0 0 0 0 0 0 0 0 0 0 0 0 0 0 0 0 0
0 0 0 0 0 0 0 0 0 0 0 0 0 0 0 0 0 0 0 0 0 0 0 0 0 0 0 0 0 0 0 0 0 0 0 0 0 0 0 0 0 0 0
0 0 0 0 0 0 0 0 0 0 0 0 0 0 0 0 0 0 0 0 0 0 0 0 0 0 0 0 0 0 0 0 0 0 0 0 0 0 0 0 0 0 0
0 0 0 0 0 0 0 0 0 0 0 0 0 0 0 0 0 0 0 0 0 0 0 0 0 0 0 0 0 0 0 0 0 0 0 0 0 0 0 0 0 0 0
0 0 0 0 0 0 0 0 0 0 0 0 0 0 0 0 0 0 0 0 0 0 0 0 0 0 0 0 0 0 0 0 0 0 0 0 0 0 0 0 0 0 0
0 0 0 0 0 0 0 0 0 0 0 0 0 0 0 0 0 0 0 0 0 0 0 0 0 0 0 0 0 0 0 0 0 0 0 0 0 0 0 0 0 0 0
0 0 0 0 0 0 0 0 0 0 0 0 0 0 0 0 0 0 0 0 0 0 0 0 0 0 0 0 0 0 0 0 0 0 0 0 0 0 0 0 0 0 0
0 0 0 0 0 0 0 0 0 0 0 0 0 0 0 0 0 0 0 0 0 0 0 0 0 0 0 0 0 0 0 0 0 0 0 0 0 0 0 0 0 0 0
0 0 0 0 0 0 0 0 0 0 0 0 0 0 0 0 0 0 0 0 0 0 0 0 0 0 0 0 0 0 0 0 0 0 0 0 0 0 0 0 0 0 0
0 0 0 0 0 0 0 0 0 0 0 0 0 0 0 0 0 0 0 0 0 0 0 0 0 0 0 0 0 0 0 0 0 0 0 0 0 0 0 0 0 0 0
0 0 0 0 0 0 0 0 0 0 0 0 0 0 0 0 0 0 0 0 0 0 0 0 0 0 0 0 0 0 0 0 0 0 0 0 0 0 0 0 0 0 0
0 0 0 0 0 0 0 0 0 0 0 0 0 0 0 0 0 0 0 0 0 0 0 0 0 0 0 0 0 0 0 0 0 0 0 0 0 0 0 0 0 0 0
0 0 0 0 0 0 0 0 0 0 0 0 0 0 0 0 0 0 0 0 0 0 0 0 0 0 0 0 0 0 0 0 0 0 0 0 0 0 0 0 0 0 0
0 0 0 0 0 0 0 0 0 0 0 0 0 0 0 0 0 0 0 0 0 0 0 0 0 0 0 0 0 0 0 0 0 0 0 0 0 0 0 0 0 0 0
0 0 0 0 0 0 0 0 0 0 0 0 0 0 0 0 0 0 0 0 0 0 0 0 0 0 0 0 0 0 0 0 0 0 0 0 0 0 0 0 0 0 0
0 0 0 0 0 0 0 0 0 0 0 0 0 0 0 0 0 0 0 0 0 0 0 0 0 0 0 0 0 0 0 0 0 0 0 0 0 0 0 0 0 0 0
0 0 0 0 0 0 0 0 0 0 0 0 0 0 0 0 0 0 0 0 0 0 0 0 0 0 0 0 0 0 0 0 0 0 0 0 0 0 0 0 0 0 0
0 0 0 0 0 0 0 0 0 0 0 0 0 0 0 0 0 0 0 0 0 0 0 0 0 0 0 0 0 0 0 0 0 0 0 0 0 0 0 0 0 0 0
0 0 0 0 0 0 0 0 0 0 0 0 0 0 0 0 0 0 0 0 0 0 0 0 0 0 0 0 0 0 0 0 0 0 0 0 0 0 0 0 0 0 0
0 0 0 0 0 0 0 0 0 0 0 0 0 0 0 0 0 0 0 0 0 0 0 0 0 0 0 0 0 0 0 0 0 0 0 0 0 0 0 0 0 0 0
0 0 0 0 0 0 0 0 0 0 0 0 0 0 0 0 0 0 0 0 0 0 0 0 0 0 0 0 0 0 0 0 0 0 0 0 0 0 0 0 0 0 0
0 0 0 0 0 0 0 0 0 0 0 0 0 0 0 0 0 0 0 0 0 0 0 0 0 0 0 0 0 0 0 0 0 0 0 0 0 0 0 0 0 0 0
0 0 0 0 0 0 0 0 0 0 0 0 0 0 0 0 0 0 0 0 0 0 0 0 0 0 0 0 0 0 0 0 0 0 0 0 0 0 0 0 0 0 0
0 0 0 0 0 0 0 0 0 0 0 0 0 0 0 0 0 0 0 0 0 0 0 0 0 0 0 0 0 0 0 0 0 0 0 0 0 0 0 0 0 0 0
0 0 0 0 0 0 0 0 0 0 0 0 0 0 0 0 0 0 0 0 0 0 0 0 0 0 0 0 0 0 0 0 0 0 0 0 0 0 0 0 0 0 0
0 0 0 0 0 0 0 0 0 0 0 0 0 0 0 0 0 0 0 0 0 0 0 0 0 0 0 0 0 0 0 0 0 0 0 0 0 0 0 0 0 0 0
Wind_Speed_500mb
10 10 1 12 11 12 10 15 17 17 17 16 18 22 24 26 27 28 31 33 34 35 36 36 38 39 39 41 43 45 46 49 65 80 83 91 88 98 99 101 99 100 93
24 22 19 18 18 18 17 16 15 14 15 18 21 22 24 25 27 29 30 30 31 33 35 35 36 38 42 42 45 46 49 51 57 81 86 93 94 97 98 96 94 86 89
33 28 27 24 21 17 17 16 14 15 17 20 22 24 25 26 26 27 28 30 32 33 34 34 37 39 40 45 48 47 51 55 61 75 89 89 87 93 92 92 88 94 86
34 31 26 22 19 18 17 15 14 17 20 24 26 26 26 26 26 27 28 30 31 31 31 32 35 39 42 47 48 52 54 62 72 72 79 80 82 81 77 90 108 104 101
35 30 25 22 20 18 18 16 18 20 23 26 26 26 26 27 27 28 30 30 29 29 31 34 38 41 44 50 50 55 59 65 66 70 72 79 78 82 85 89 97 104 107
35 30 28 25 20 21 19 20 21 23 25 26 27 28 28 29 29 31 31 31 29 30 33 35 39 41 46 51 52 51 55 56 60 64 69 76 78 84 97 88 91 98 104
35 34 29 24 25 22 22 24 25 26 26 27 29 30 30 31 33 34 32 32 31 33 34 35 40 43 49 54 63 65 58 48 47 53 64 68 81 87 81 89 88 88 89
38 33 29 28 26 25 26 27 28 27 28 29 30 32 34 35 35 35 34 32 30 31 34 36 43 47 50 55 67 65 63 62 58 53 56 69 71 69 67 69 74 82 86
36 33 32 30 29 28 30 30 29 28 29 31 33 34 36 37 36 36 34 31 29 30 35 42 48 50 52 61 64 68 69 69 66 64 68 67 63 57 53 60 63 70 77
37 36 35 34 33 34 33 30 31 32 32 34 36 37 38 38 36 34 31 28 30 36 40 43 44 50 60 59 62 65 71 73 75 76 72 69 61 56 50 42 51 59 65
38 38 37 38 39 38 35 34 33 35 37 38 39 39 38 35 34 33 33 32 34 38 40 41 46 54 57 57 57 59 60 63 69 70 70 66 62 60 56 50 46 50 60
38 38 41 42 43 40 40 40 37 38 41 41 40 38 36 34 34 34 35 34 35 39 40 45 52 56 57 57 55 55 55 62 65 66 64 61 64 63 61 57 50 51 49
39 42 44 46 46 45 45 43 43 42 41 41 39 38 38 37 35 34 34 34 36 37 45 51 54 57 58 57 56 56 59 59 59 60 59 63 59 60 60 62 59 59 57
45 46 48 51 51 52 50 49 48 44 42 41 39 38 38 39 37 33 33 34 37 42 48 51 56 57 56 55 58 57 57 54 55 55 59 58 58 59 61 61 66 65 65
50 51 53 55 56 57 55 54 50 46 44 43 39 37 39 40 37 35 34 35 39 44 50 53 56 57 59 59 58 57 55 54 54 56 57 59 60 60 62 62 60 63 61
56 56 57 58 61 61 59 57 52 50 47 43 40 39 40 37 38 35 35 38 43 47 51 55 56 57 58 58 59 57 54 54 55 57 57 58 58 60 62 61 58 59 58
60 61 62 64 64 62 61 58 56 51 48 43 43 42 40 36 36 35 37 38 44 49 52 54 55 57 57 55 56 55 56 55 56 56 57 57 56 57 56 58 59 57 56
62 65 66 67 64 64 63 60 56 53 48 44 43 42 39 37 37 36 38 41 44 48 52 54 57 58 57 57 56 55 56 55 54 55 55 56 56 55 54 55 55 55 52
66 68 68 67 67 65 62 59 56 52 50 48 45 40 37 37 37 37 38 41 46 50 53 55 56 57 58 57 58 58 57 57 55 55 55 56 55 53 53 50 52 49 48
68 68 70 67 67 65 62 59 57 55 52 48 44 38 38 38 36 34 38 42 47 52 55 59 59 60 60 58 58 59 59 57 55 55 55 54 53 52 50 48 47 48 45
68 68 67 67 68 64 60 58 56 54 50 46 42 41 39 39 36 36 39 43 49 53 58 61 62 61 61 61 61 61 60 57 55 55 55 54 52 51 45 44 45 42 42
59 61 61 60 59 60 58 56 54 52 48 44 43 39 38 37 36 38 42 47 51 55 58 61 61 60 61 63 63 64 62 57 53 53 54 52 51 47 42 43 43 42 40
53 54 56 55 55 56 55 54 52 48 46 43 41 36 35 34 36 40 46 51 54 55 54 56 60 63 61 61 61 61 62 58 53 51 53 51 48 43 39 41 42 43 38
47 48 49 50 50 51 51 49 47 46 44 41 37 35 33 34 37 43 48 52 52 52 53 56 58 59 58 55 54 54 54 53 51 48 48 48 46 39 38 40 40 40 37
44 44 45 46 47 47 47 46 45 43 41 39 35 33 33 35 39 43 46 47 49 50 49 48 47 47 48 49 49 50 48 45 44 44 46 45 42 35 36 42 42 38 34
44 44 45 46 47 46 46 45 44 43 41 36 35 33 33 36 39 40 42 44 43 40 41 41 42 43 45 48 50 48 44 41 40 39 39 38 34 33 37 35 37 35 32
Wind_Direction_500mb
63 91 186 260 251 246 261 280 293 307 320 331 338 341 340 341 344 346 347 345 342 339 338 337 337 337 337 337 336 334 329 324 313 317 323 331 329 330 330 330 329 328 324
194 211 225 245 250 262 265 283 295 311 324 332 333 336 339 341 342 340 338 337 338 339 338 338 335 339 341 336 335 334 330 326 318 318 323 326 327 329 328 327 326 324 321
215 224 222 225 236 246 268 285 303 318 324 329 334 335 334 331 331 331 333 335 336 335 334 333 339 338 335 336 336 332 329 323 322 318 320 325 325 328 328 326 325 324 324
217 217 224 225 237 259 275 291 309 319 323 324 321 318 317 319 323 326 329 331 331 328 329 332 330 330 331 332 333 334 328 326 324 322 323 321 323 328 326 327 326 325 323
217 221 226 233 251 270 281 295 308 310 309 307 306 309 312 314 316 321 325 324 322 325 323 321 321 324 327 332 335 332 327 324 323 324 321 320 325 328 329 323 322 322 323
223 228 231 240 258 269 280 294 296 295 298 301 303 305 306 307 314 315 316 317 318 315 315 316 317 324 326 329 328 326 325 323 322 320 317 321 323 322 321 324 323 324 323
228 231 235 249 260 271 282 283 288 293 294 296 299 302 304 308 310 312 314 311 313 313 314 316 320 322 324 323 324 328 328 324 320 316 320 320 314 319 323 322 323 321 317
232 235 242 252 265 275 278 281 283 285 290 293 298 300 303 306 307 306 307 311 311 310 310 313 317 320 324 322 327 329 330 330 329 326 316 312 318 320 318 318 315 313 317
236 242 250 261 267 271 276 276 277 282 287 292 297 300 300 299 299 304 309 308 307 310 315 318 318 321 321 327 328 331 330 331 329 328 326 326 324 321 323 317 319 322 323
241 246 254 263 270 272 270 272 277 281 286 292 294 292 292 294 297 298 303 312 313 312 315 316 317 318 325 329 330 330 328 331 330 330 331 330 330 332 329 323 322 326 323
243 252 262 269 268 266 267 270 275 279 284 287 288 289 290 292 298 305 308 306 304 311 316 316 318 323 328 330 331 330 328 325 330 330 331 332 336 336 335 331 329 325 322
251 263 270 271 267 268 268 269 273 276 278 280 281 284 289 293 296 295 296 300 304 313 318 320 323 328 330 331 332 332 331 332 332 331 332 338 338 336 335 334 329 326 324
265 270 274 274 269 268 268 268 271 272 274 277 282 286 289 289 286 290 295 298 308 314 319 324 327 329 331 331 337 337 334 334 333 334 337 337 337 333 331 333 331 333 331
272 277 279 276 270 269 269 269 269 271 274 276 278 277 281 284 285 287 292 301 308 315 320 326 330 330 331 334 336 335 333 335 338 338 335 336 336 333 334 336 333 337 335
275 276 278 278 274 272 269 269 270 272 272 270 269 270 274 275 278 285 291 301 306 316 323 326 327 330 333 332 331 332 333 338 340 339 337 339 335 333 335 337 338 337 337
275 278 280 278 275 271 271 271 271 269 266 263 262 265 268 268 277 283 289 297 309 319 323 324 327 330 329 328 329 331 335 337 338 339 340 335 334 333 334 337 340 340 338
276 277 277 277 276 274 271 271 271 267 265 263 262 265 267 271 280 280 288 302 313 318 319 322 324 325 324 326 326 328 332 335 337 337 335 333 333 333 334 335 338 340 339
275 277 275 275 273 271 270 269 267 265 266 263 262 263 263 273 277 283 294 305 311 314 317 321 321 322 323 324 324 326 329 331 332 332 332 334 334 332 333 334 336 338 338
278 276 274 272 271 269 268 266 264 262 260 259 261 261 263 273 274 284 296 306 311 314 317 317 318 319 321 321 321 323 325 326 329 331 331 331 331 332 332 331 333 335 337
278 276 274 270 268 267 266 264 261 259 257 255 256 260 268 267 274 286 297 305 310 314 316 316 319 320 320 318 318 318 318 321 325 326 326 327 328 330 330 330 333 334 337
282 278 275 270 267 266 264 260 257 256 253 252 254 266 266 270 280 290 300 307 311 314 316 317 318 318 316 315 314 312 313 316 320 321 322 324 325 325 328 330 333 332 332
281 277 274 270 266 263 261 258 255 252 249 248 258 262 265 274 284 294 303 308 310 314 316 315 315 315 314 312 310 308 308 310 313 315 318 319 320 321 324 328 332 333 332
281 277 274 269 264 260 257 254 253 251 247 249 256 258 263 273 286 298 303 308 312 315 316 315 314 314 313 311 309 306 304 306 307 309 313 314 315 316 321 325 331 330 328
281 275 269 265 261 258 256 255 251 247 246 251 254 257 266 280 291 300 307 311 313 315 317 316 315 315 314 313 311 309 305 302 302 306 308 309 309 311 318 321 321 325 322
282 274 268 264 261 258 256 252 248 245 248 251 254 259 271 284 294 303 308 311 314 317 320 320 322 325 327 328 327 321 314 306 303 305 305 303 303 306 314 321 318 317 317
282 274 268 263 259 257 251 248 245 247 250 250 252 263 276 288 300 307 309 313 318 323 326 330 334 336 338 339 337 331 324 316 311 307 304 298 297 308 306 310 318 312 313
Wind_Speed_850mb
10 10 1 12 11 12 10 15 17 17 17 16 18 22 24 26 27 28 31 33 34 35 36 36 38 39 39 41 43 45 46 49 65 80 83 91 88 98 99 101 99 100 93
24 22 19 18 18 18 17 16 15 14 15 18 21 22 24 25 27 29 30 30 31 33 35 35 36 38 42 42 45 46 49 51 57 81 86 93 94 97 98 96 94 86 89
33 28 27 24 21 17 17 16 14 15 17 20 22 24 25 26 26 27 28 30 32 33 34 34 37 39 40 45 48 47 51 55 61 75 89 89 87 93 92 92 88 94 86
34 31 26 22 19 18 17 15 14 17 20 24 26 26 26 26 26 27 28 30 31 31 31 32 35 39 42 47 48 52 54 62 72 72 79 80 82 81 77 90 108 104 101
35 30 25 22 20 18 18 16 18 20 23 26 26 26 26 27 27 28 30 30 29 29 31 34 38 41 44 50 50 55 59 65 66 70 72 79 78 82 85 89 97 104 107
35 30 28 25 20 21 19 20 21 23 25 26 27 28 28 29 29 31 31 31 29 30 33 35 39 41 46 51 52 51 55 56 60 64 69 76 78 84 97 88 91 98 104
35 34 29 24 25 22 22 24 25 26 26 27 29 30 30 31 33 34 32 32 31 33 34 35 40 43 49 54 63 65 58 48 47 53 64 68 81 87 81 89 88 88 89
38 33 29 28 26 25 26 27 28 27 28 29 30 32 34 35 35 35 34 32 30 31 34 36 43 47 50 55 67 65 63 62 58 53 56 69 71 69 67 69 74 82 86
36 33 32 30 29 28 30 30 29 28 29 31 33 34 36 37 36 36 34 31 29 30 35 42 48 50 52 61 64 68 69 69 66 64 68 67 63 57 53 60 63 70 77
37 36 35 34 33 34 33 30 31 32 32 34 36 37 38 38 36 34 31 28 30 36 40 43 44 50 60 59 62 65 71 73 75 76 72 69 61 56 50 42 51 59 65
38 38 37 38 39 38 35 34 33 35 37 38 39 39 38 35 34 33 33 32 34 38 40 41 46 54 57 57 57 59 60 63 69 70 70 66 62 60 56 50 46 50 60
38 38 41 42 43 40 40 40 37 38 41 41 40 38 36 34 34 34 35 34 35 39 40 45 52 56 57 57 55 55 55 62 65 66 64 61 64 63 61 57 50 51 49
39 42 44 46 46 45 45 43 43 42 41 41 39 38 38 37 35 34 34 34 36 37 45 51 54 57 58 57 56 56 59 59 59 60 59 63 59 60 60 62 59 59 57
45 46 48 51 51 52 50 49 48 44 42 41 39 38 38 39 37 33 33 34 37 42 48 51 56 57 56 55 58 57 57 54 55 55 59 58 58 59 61 61 66 65 65
50 51 53 55 56 57 55 54 50 46 44 43 39 37 39 40 37 35 34 35 39 44 50 53 56 57 59 59 58 57 55 54 54 56 57 59 60 60 62 62 60 63 61
56 56 57 58 61 61 59 57 52 50 47 43 40 39 40 37 38 35 35 38 43 47 51 55 56 57 58 58 59 57 54 54 55 57 57 58 58 60 62 61 58 59 58
60 61 62 64 64 62 61 58 56 51 48 43 43 42 40 36 36 35 37 38 44 49 52 54 55 57 57 55 56 55 56 55 56 56 57 57 56 57 56 58 59 57 56
62 65 66 67 64 64 63 60 56 53 48 44 43 42 39 37 37 36 38 41 44 48 52 54 57 58 57 57 56 55 56 55 54 55 55 56 56 55 54 55 55 55 52
66 68 68 67 67 65 62 59 56 52 50 48 45 40 37 37 37 37 38 41 46 50 53 55 56 57 58 57 58 58 57 57 55 55 55 56 55 53 53 50 52 49 48
68 68 70 67 67 65 62 59 57 55 52 48 44 38 38 38 36 34 38 42 47 52 55 59 59 60 60 58 58 59 59 57 55 55 55 54 53 52 50 48 47 48 45
68 68 67 67 68 64 60 58 56 54 50 46 42 41 39 39 36 36 39 43 49 53 58 61 62 61 61 61 61 61 60 57 55 55 55 54 52 51 45 44 45 42 42
59 61 61 60 59 60 58 56 54 52 48 44 43 39 38 37 36 38 42 47 51 55 58 61 61 60 61 63 63 64 62 57 53 53 54 52 51 47 42 43 43 42 40
53 54 56 55 55 56 55 54 52 48 46 43 41 36 35 34 36 40 46 51 54 55 54 56 60 63 61 61 61 61 62 58 53 51 53 51 48 43 39 41 42 43 38
47 48 49 50 50 51 51 49 47 46 44 41 37 35 33 34 37 43 48 52 52 52 53 56 58 59 58 55 54 54 54 53 51 48 48 48 46 39 38 40 40 40 37
44 44 45 46 47 47 47 46 45 43 41 39 35 33 33 35 39 43 46 47 49 50 49 48 47 47 48 49 49 50 48 45 44 44 46 45 42 35 36 42 42 38 34
44 44 45 46 47 46 46 45 44 43 41 36 35 33 33 36 39 40 42 44 43 40 41 41 42 43 45 48 50 48 44 41 40 39 39 38 34 33 37 35 37 35 32
Wind_Direction_850mb
63 91 186 260 251 246 261 280 293 307 320 331 338 341 340 341 344 346 347 345 342 339 338 337 337 337 337 337 336 334 329 324 313 317 323 331 329 330 330 330 329 328 324
194 211 225 245 250 262 265 283 295 311 324 332 333 336 339 341 342 340 338 337 338 339 338 338 335 339 341 336 335 334 330 326 318 318 323 326 327 329 328 327 326 324 321
215 224 222 225 236 246 268 285 303 318 324 329 334 335 334 331 331 331 333 335 336 335 334 333 339 338 335 336 336 332 329 323 322 318 320 325 325 328 328 326 325 324 324
217 217 224 225 237 259 275 291 309 319 323 324 321 318 317 319 323 326 329 331 331 328 329 332 330 330 331 332 333 334 328 326 324 322 323 321 323 328 326 327 326 325 323
217 221 226 233 251 270 281 295 308 310 309 307 306 309 312 314 316 321 325 324 322 325 323 321 321 324 327 332 335 332 327 324 323 324 321 320 325 328 329 323 322 322 323
223 228 231 240 258 269 280 294 296 295 298 301 303 305 306 307 314 315 316 317 318 315 315 316 317 324 326 329 328 326 325 323 322 320 317 321 323 322 321 324 323 324 323
228 231 235 249 260 271 282 283 288 293 294 296 299 302 304 308 310 312 314 311 313 313 314 316 320 322 324 323 324 328 328 324 320 316 320 320 314 319 323 322 323 321 317
232 235 242 252 265 275 278 281 283 285 290 293 298 300 303 306 307 306 307 311 311 310 310 313 317 320 324 322 327 329 330 330 329 326 316 312 318 320 318 318 315 313 317
236 242 250 261 267 271 276 276 277 282 287 292 297 300 300 299 299 304 309 308 307 310 315 318 318 321 321 327 328 331 330 331 329 328 326 326 324 321 323 317 319 322 323
241 246 254 263 270 272 270 272 277 281 286 292 294 292 292 294 297 298 303 312 313 312 315 316 317 318 325 329 330 330 328 331 330 330 331 330 330 332 329 323 322 326 323
243 252 262 269 268 266 267 270 275 279 284 287 288 289 290 292 298 305 308 306 304 311 316 316 318 323 328 330 331 330 328 325 330 330 331 332 336 336 335 331 329 325 322
251 263 270 271 267 268 268 269 273 276 278 280 281 284 289 293 296 295 296 300 304 313 318 320 323 328 330 331 332 332 331 332 332 331 332 338 338 336 335 334 329 326 324
265 270 274 274 269 268 268 268 271 272 274 277 282 286 289 289 286 290 295 298 308 314 319 324 327 329 331 331 337 337 334 334 333 334 337 337 337 333 331 333 331 333 331
272 277 279 276 270 269 269 269 269 271 274 276 278 277 281 284 285 287 292 301 308 315 320 326 330 330 331 334 336 335 333 335 338 338 335 336 336 333 334 336 333 337 335
275 276 278 278 274 272 269 269 270 272 272 270 269 270 274 275 278 285 291 301 306 316 323 326 327 330 333 332 331 332 333 338 340 339 337 339 335 333 335 337 338 337 337
275 278 280 278 275 271 271 271 271 269 266 263 262 265 268 268 277 283 289 297 309 319 323 324 327 330 329 328 329 331 335 337 338 339 340 335 334 333 334 337 340 340 338
276 277 277 277 276 274 271 271 271 267 265 263 262 265 267 271 280 280 288 302 313 318 319 322 324 325 324 326 326 328 332 335 337 337 335 333 333 333 334 335 338 340 339
275 277 275 275 273 271 270 269 267 265 266 263 262 263 263 273 277 283 294 305 311 314 317 321 321 322 323 324 324 326 329 331 332 332 332 334 334 332 333 334 336 338 338
278 276 274 272 271 269 268 266 264 262 260 259 261 261 263 273 274 284 296 306 311 314 317 317 318 319 321 321 321 323 325 326 329 331 331 331 331 332 332 331 333 335 337
278 276 274 270 268 267 266 264 261 259 257 255 256 260 268 267 274 286 297 305 310 314 316 316 319 320 320 318 318 318 318 321 325 326 326 327 328 330 330 330 333 334 337
282 278 275 270 267 266 264 260 257 256 253 252 254 266 266 270 280 290 300 307 311 314 316 317 318 318 316 315 314 312 313 316 320 321 322 324 325 325 328 330 333 332 332
281 277 274 270 266 263 261 258 255 252 249 248 258 262 265 274 284 294 303 308 310 314 316 315 315 315 314 312 310 308 308 310 313 315 318 319 320 321 324 328 332 333 332
281 277 274 269 264 260 257 254 253 251 247 249 256 258 263 273 286 298 303 308 312 315 316 315 314 314 313 311 309 306 304 306 307 309 313 314 315 316 321 325 331 330 328
281 275 269 265 261 258 256 255 251 247 246 251 254 257 266 280 291 300 307 311 313 315 317 316 315 315 314 313 311 309 305 302 302 306 308 309 309 311 318 321 321 325 322
282 274 268 264 261 258 256 252 248 245 248 251 254 259 271 284 294 303 308 311 314 317 320 320 322 325 327 328 327 321 314 306 303 305 305 303 303 306 314 321 318 317 317
282 274 268 263 259 257 251 248 245 247 250 250 252 263 276 288 300 307 309 313 318 323 326 330 334 336 338 339 337 331 324 316 311 307 304 298 297 308 306 310 318 312 313